[[{"header":{"parameterUnit":"m.s-1","parameterCategory":1,"la1":30.2991,"la2":30.254,"lo1":-89.0895,"lo2":-89.0444,"dy":0.0017,"dx":0.0017,"nx":28,"ny":28,"refTime":"2024-06-08T03:00:00:Z","depth":0,"parameterNumber":2,"parameterNumberName":"U-component_of_WINDS"},"data":[0,0,0,0,0,0,0,0,0,0,0,0,0,0,0,0,0,0,0,0,0,0,0,0,0,0,0,0,0,0,0,0,0,0,0,0,0,0,0,0,0,0,0,0,0,0,0,0,0,0,0,0,0,0,0,0,0,0,-0.8841,-0.8841,0,-0.8773,-0.8772,-0.8771,-0.8719,-0.8719,-0.8718,-0.8718,-0.8647,-0.8646,-0.8644,0,0,0,0,0,0,0,0,0,0,0,0,0,-0.8928,-0.8926,-0.8841,-0.8841,-0.884,-0.8773,-0.8772,-0.8771,-0.8719,-0.8719,-0.8718,-0.8718,-0.8648,-0.8646,-0.8644,0,0,0,0,0,0,0,0,0,0,0,0,0,-0.8878,-0.8926,-0.8842,-0.8806,-0.8802,-0.8773,-0.8772,-0.8771,-0.8719,-0.8719,-0.8718,-0.8717,-0.8648,-0.8646,-0.8644,-0.8645,0,0,-0.8637,-0.8636,0,0,0,0,0,0,0,0,-0.8881,-0.8875,-0.8812,-0.8808,-0.8804,-0.8754,-0.8776,-0.8728,-0.872,-0.8751,-0.8718,-0.8717,-0.8683,-0.8678,-0.8667,-0.8641,-0.8638,-0.8637,-0.8636,-0.8635,-0.8634,0,0,0,0,0,0,0,-0.8884,-0.8877,-0.8814,-0.8811,-0.8806,-0.8793,-0.8785,-0.8767,-0.8722,-0.8748,-0.8744,-0.8737,-0.8681,-0.8669,-0.8665,-0.8637,-0.8637,-0.8635,-0.8634,-0.8633,-0.8609,-0.8609,0,0,0,0,0,0,-0.8893,-0.8881,-0.8816,-0.8812,-0.8841,-0.8792,-0.8783,-0.8771,-0.8722,-0.8714,-0.8737,-0.8734,-0.8673,-0.8667,-0.8662,-0.8659,-0.8635,-0.8633,-0.8632,-0.8608,-0.8609,-0.861,0,0,0,0,0,0,-0.8895,-0.8888,-0.8819,-0.8845,-0.8835,-0.8791,-0.8777,-0.877,-0.8758,-0.8714,-0.8705,-0.8734,-0.8672,-0.8665,-0.8649,-0.8656,-0.8632,-0.863,-0.8607,-0.8608,-0.8609,-0.8654,0,0,0,0,0,0,-0.8898,-0.8889,-0.8889,-0.8846,-0.8834,-0.8808,-0.8778,-0.8769,-0.8754,-0.875,-0.8708,-0.87,-0.8671,-0.8653,-0.8647,-0.8653,-0.8628,-0.8606,-0.8608,-0.8609,-0.8652,-0.8657,-0.8661,0,0,0,0,0,-0.8901,-0.8905,-0.8889,-0.8882,-0.8833,-0.8808,-0.8802,-0.8768,-0.8755,-0.8754,-0.8726,-0.8702,-0.8656,-0.8652,-0.8645,-0.865,-0.8606,-0.8607,-0.8609,-0.865,-0.8656,-0.8661,0,0,0,0,0,0,-0.895,-0.8898,-0.8881,-0.887,-0.8844,-0.88,-0.8798,-0.8775,-0.8753,-0.8749,-0.8709,-0.87,-0.8688,-0.8667,-0.8663,-0.8648,-0.8628,-0.8628,-0.8662,-0.8667,-0.8671,-0.8676,-0.8626,0,0,0,0,0,-0.8959,-0.8944,-0.8899,-0.8894,-0.8882,-0.8843,-0.883,-0.8807,-0.8778,-0.8767,-0.8737,-0.871,-0.869,-0.8677,-0.8656,-0.8649,-0.8639,-0.8649,-0.8653,-0.8657,-0.8658,-0.8652,-0.8656,-0.8614,-0.8614,-0.8614,0,0,-0.8979,-0.8949,-0.8941,-0.8903,-0.888,-0.8865,-0.8834,-0.8818,-0.8806,-0.8764,-0.8747,-0.8725,-0.8692,-0.8681,-0.8674,-0.8663,-0.8667,-0.8659,-0.8662,-0.8661,-0.8654,-0.8658,-0.8661,-0.8615,-0.8615,-0.8615,0,0,-0.9006,-0.8982,-0.8975,-0.8953,-0.8918,-0.8892,-0.889,-0.8849,-0.8833,-0.8815,-0.8783,-0.8768,-0.8734,-0.8712,-0.8696,-0.8715,-0.8691,-0.8709,-0.8732,-0.8727,-0.873,-0.8733,-0.8739,-0.8742,-0.871,-0.871,-0.871,0,-0.9035,-0.901,-0.8974,-0.8961,-0.8945,-0.8906,-0.8898,-0.8878,-0.8839,-0.8829,-0.8817,-0.8773,-0.8748,-0.8731,-0.8736,-0.8724,-0.8721,-0.8714,-0.8733,-0.8735,-0.8737,-0.8742,-0.8745,-0.8712,-0.8712,-0.8712,-0.8712,0,-0.9047,-0.903,-0.9028,-0.8991,-0.8975,-0.8965,-0.8927,-0.8915,-0.8893,-0.8868,-0.885,-0.8819,-0.8791,-0.8785,-0.8763,-0.8764,-0.8758,-0.874,-0.8719,-0.8744,-0.8748,-0.875,-0.8716,-0.8715,-0.8714,-0.8714,0,0,-0.9103,-0.9046,-0.9046,-0.9028,-0.8987,-0.8973,-0.8961,-0.8934,-0.8924,-0.8898,-0.8886,-0.8858,-0.8841,-0.8823,-0.8799,-0.8794,-0.8811,-0.8776,-0.8775,-0.8783,-0.881,-0.8823,-0.8826,-0.8795,-0.8795,-0.8795,-0.8812,0,-0.9123,-0.9099,-0.9067,-0.9053,-0.9037,-0.9,-0.8989,-0.8963,-0.8939,-0.8922,-0.8896,-0.8876,-0.8855,-0.8844,-0.8838,-0.881,-0.8815,-0.8808,-0.8783,-0.8783,-0.8793,-0.8829,-0.8843,-0.886,-0.8814,-0.8814,-0.8814,0,-0.9144,-0.912,-0.9106,-0.9066,-0.9058,-0.9049,-0.902,-0.9004,-0.8974,-0.8957,-0.8937,-0.891,-0.8895,-0.8877,-0.8855,-0.8851,-0.8839,-0.8824,-0.8823,-0.882,-0.88,-0.8825,-0.8865,-0.8868,-0.8817,-0.8817,-0.8816,0,-0.9186,-0.915,-0.9136,-0.9123,-0.9076,-0.907,-0.9051,-0.9019,-0.9005,-0.898,-0.897,-0.8944,-0.893,-0.891,-0.8877,-0.8867,-0.8859,-0.8838,-0.8844,-0.8845,-0.8844,-0.8844,-0.8882,-0.8837,-0.8837,-0.8837,-0.8837,0,-0.9213,-0.9205,-0.9155,-0.9146,-0.9136,-0.9099,-0.909,-0.9067,-0.9039,-0.9026,-0.8992,-0.898,-0.8937,-0.892,-0.8894,-0.888,-0.8874,-0.8859,-0.8852,-0.8862,-0.8864,-0.8853,-0.8851,-0.8837,-0.8837,-0.8837,-0.8837,0,-0.9258,-0.9224,-0.9206,-0.9163,-0.9152,-0.9147,-0.911,-0.9101,-0.9075,-0.9058,-0.9052,-0.9011,-0.8989,-0.8954,-0.8922,-0.8904,-0.8895,-0.8883,-0.8905,-0.8901,-0.8909,-0.8908,-0.894,-0.8942,-0.8897,-0.8898,-0.8898,0,-0.9277,-0.927,-0.9226,-0.9215,-0.9196,-0.9178,-0.9162,-0.9125,-0.9111,-0.9075,-0.907,-0.9045,-0.9023,-0.899,-0.8957,-0.8932,-0.892,-0.8933,-0.8916,-0.8925,-0.8919,-0.892,-0.8919,-0.8937,-0.8937,-0.8938,-0.8938,0,-0.9314,-0.9297,-0.9277,-0.925,-0.9233,-0.921,-0.9186,-0.9178,-0.9136,-0.9121,-0.9098,-0.9081,-0.9048,-0.9024,-0.8994,-0.8973,-0.8949,-0.8944,-0.8944,-0.8954,-0.8966,-0.8959,-0.8915,-0.8943,-0.8943,-0.8942,-0.8942,-0.8942,-0.9346,-0.9338,-0.9306,-0.9284,-0.9262,-0.924,-0.9228,-0.9201,-0.9181,-0.9151,-0.913,-0.9109,-0.9078,-0.9035,-0.9016,-0.8998,-0.8987,-0.8988,-0.8987,-0.8988,-0.8991,-0.897,-0.8993,-0.8992,-0.8992,-0.8992,-0.8992,0,-0.9381,-0.9359,-0.9339,-0.9306,-0.9288,-0.9267,-0.9238,-0.9225,-0.9207,-0.918,-0.9159,-0.9132,-0.9109,-0.9074,-0.9048,-0.904,-0.9028,-0.9034,-0.9034,-0.903,-0.9003,-0.9005,-0.9045,-0.9045,-0.9045,-0.9045,-0.9045,-0.9045,-0.9397,-0.9382,-0.9362,-0.9336,-0.9313,-0.9291,-0.9277,-0.9257,-0.9235,-0.9207,-0.9187,-0.9165,-0.9135,-0.9106,-0.9083,-0.9073,-0.9065,-0.9075,-0.9062,-0.9037,-0.9032,-0.9027,-0.9029,-0.9073,-0.9073,-0.909,-0.909,-0.909]},{"header":{"parameterUnit":"m.s-1","parameterCategory":1,"la1":30.2991,"la2":30.254,"lo1":-89.0895,"lo2":-89.0444,"dy":0.0017,"dx":0.0017,"nx":28,"ny":28,"refTime":"2024-06-08T03:00:00:Z","depth":0,"parameterNumber":3,"parameterNumberName":"V-component_of_WINDS"},"data":[0,0,0,0,0,0,0,0,0,0,0,0,0,0,0,0,0,0,0,0,0,0,0,0,0,0,0,0,0,0,0,0,0,0,0,0,0,0,0,0,0,0,0,0,0,0,0,0,0,0,0,0,0,0,0,0,0,0,3.4476,3.4477,0,3.4506,3.4506,3.4507,3.4459,3.4458,3.4456,3.4455,3.4482,3.4484,3.4487,0,0,0,0,0,0,0,0,0,0,0,0,0,3.4375,3.4377,3.4476,3.4477,3.4477,3.4506,3.4507,3.4507,3.446,3.4458,3.4456,3.4454,3.4481,3.4484,3.4487,0,0,0,0,0,0,0,0,0,0,0,0,0,3.4413,3.4378,3.4476,3.4457,3.4456,3.4506,3.4507,3.4507,3.446,3.4458,3.4455,3.4453,3.4481,3.4484,3.4487,3.4557,0,0,3.4497,3.4499,0,0,0,0,0,0,0,0,3.4411,3.4417,3.446,3.4459,3.4457,3.4477,3.4481,3.4524,3.4461,3.4458,3.4455,3.4452,3.4482,3.4485,3.4496,3.4558,3.4559,3.4498,3.45,3.4501,3.4502,0,0,0,0,0,0,0,3.4409,3.4416,3.4488,3.446,3.4459,3.4446,3.4449,3.4489,3.4483,3.4458,3.4455,3.4459,3.4481,3.4493,3.4496,3.4559,3.4498,3.4501,3.4503,3.4504,3.4678,3.4681,0,0,0,0,0,0,3.4409,3.4414,3.4487,3.4489,3.4428,3.445,3.4453,3.4473,3.4483,3.4482,3.4461,3.4457,3.4488,3.4492,3.4497,3.4578,3.4501,3.4504,3.4506,3.4676,3.4679,3.4682,0,0,0,0,0,0,3.4407,3.4416,3.4486,3.445,3.4458,3.4454,3.4477,3.4475,3.4487,3.4485,3.4484,3.4475,3.4487,3.4492,3.4542,3.4578,3.4506,3.4509,3.4673,3.4677,3.468,3.4741,0,0,0,0,0,0,3.4404,3.4416,3.4443,3.4452,3.4461,3.4532,3.4479,3.4477,3.4493,3.4487,3.4497,3.4497,3.4485,3.4537,3.4545,3.4582,3.4512,3.4669,3.4674,3.4679,3.4736,3.4746,3.4756,0,0,0,0,0,3.4401,3.4458,3.4444,3.4453,3.4495,3.4534,3.4539,3.4525,3.4496,3.4523,3.4522,3.4496,3.4573,3.4543,3.4551,3.4589,3.4667,3.4673,3.4679,3.4731,3.4744,3.4755,0,0,0,0,0,0,3.4453,3.4459,3.4444,3.4506,3.452,3.4526,3.4559,3.454,3.4561,3.4555,3.4537,3.4539,3.4592,3.4596,3.4562,3.4656,3.4615,3.4623,3.4652,3.4664,3.4674,3.4672,3.4514,0,0,0,0,0,3.4472,3.4504,3.4508,3.4562,3.457,3.4564,3.458,3.4568,3.4581,3.4587,3.4589,3.4602,3.4629,3.4647,3.4672,3.4736,3.4737,3.4766,3.4776,3.4785,3.4791,3.4824,3.4837,3.4701,3.4701,3.4701,0,0,3.4511,3.4518,3.454,3.4573,3.4582,3.4615,3.4569,3.4605,3.4629,3.4592,3.4639,3.4641,3.4654,3.4711,3.4737,3.4716,3.4829,3.4792,3.4799,3.4801,3.4832,3.4844,3.4856,3.4705,3.4704,3.4704,0,0,3.4599,3.4608,3.4654,3.4665,3.468,3.4675,3.4686,3.4695,3.4695,3.4742,3.4715,3.4742,3.4789,3.4799,3.4811,3.4902,3.4879,3.491,3.4962,3.4995,3.5005,3.5015,3.5046,3.5057,3.4917,3.4917,3.4917,0,3.4645,3.4694,3.468,3.4719,3.4733,3.4702,3.4748,3.4758,3.478,3.479,3.4767,3.4825,3.4832,3.489,3.4912,3.4923,3.4934,3.4909,3.5005,3.5014,3.5023,3.5052,3.5064,3.4921,3.4921,3.492,3.492,0,3.475,3.4784,3.4819,3.4842,3.4861,3.4903,3.4893,3.4914,3.4901,3.4898,3.4946,3.4953,3.4978,3.4991,3.4978,3.5047,3.5034,3.5008,3.4966,3.504,3.5067,3.5078,3.4926,3.4925,3.4924,3.4923,0,0,3.4871,3.4885,3.4898,3.4907,3.4922,3.4947,3.4987,3.5013,3.503,3.5046,3.5078,3.5118,3.5095,3.5108,3.5096,3.5124,3.5194,3.5095,3.5095,3.5112,3.5269,3.5287,3.5301,3.518,3.5182,3.5184,3.5268,0,3.4957,3.5027,3.5015,3.5082,3.5113,3.5084,3.5118,3.513,3.5129,3.5153,3.5151,3.518,3.5147,3.5155,3.5182,3.518,3.5225,3.5174,3.5208,3.5209,3.5204,3.5315,3.5335,3.5414,3.5278,3.528,3.5282,0,3.5067,3.5088,3.5158,3.5167,3.5179,3.5211,3.5232,3.5257,3.5269,3.5266,3.5281,3.5263,3.5301,3.526,3.5312,3.5277,3.529,3.5291,3.5294,3.5296,3.5249,3.5319,3.5439,3.5451,3.5299,3.5297,3.5296,0,3.5147,3.5192,3.524,3.5249,3.5261,3.5283,3.5289,3.5299,3.5314,3.5333,3.5343,3.5366,3.5378,3.5395,3.5384,3.5355,3.5437,3.5395,3.5434,3.5435,3.5452,3.5451,3.5575,3.5463,3.5463,3.5462,3.5462,0,3.5244,3.5287,3.5276,3.5305,3.5353,3.5338,3.5386,3.5388,3.5397,3.5425,3.5401,3.5428,3.5412,3.5437,3.5428,3.5472,3.5478,3.5475,3.5472,3.5477,3.5477,3.5484,3.5478,3.5465,3.5465,3.5464,3.5464,0,3.534,3.5334,3.5384,3.5391,3.5394,3.5429,3.5434,3.546,3.5457,3.5493,3.55,3.5495,3.5523,3.5514,3.5544,3.5538,3.5593,3.5584,3.5589,3.5587,3.5626,3.5622,3.5758,3.5775,3.5653,3.5654,3.5655,0,3.5402,3.5435,3.5445,3.5463,3.5471,3.5499,3.5515,3.5502,3.5519,3.5535,3.556,3.5586,3.5606,3.5653,3.5651,3.5673,3.5663,3.571,3.5667,3.567,3.5662,3.566,3.5663,3.5718,3.5719,3.572,3.5721,0,3.5512,3.5507,3.5531,3.5555,3.5575,3.5592,3.5608,3.5623,3.561,3.5631,3.566,3.5676,3.5707,3.5733,3.5753,3.5757,3.5737,3.5735,3.5745,3.5749,3.5751,3.5749,3.5611,3.5732,3.5731,3.573,3.5729,3.5729,3.5592,3.5619,3.5631,3.5659,3.5669,3.5684,3.5709,3.5709,3.5733,3.5758,3.5748,3.5781,3.5791,3.5817,3.5824,3.5849,3.5831,3.5846,3.5849,3.5853,3.5857,3.5748,3.5853,3.5852,3.5852,3.5852,3.5851,0,3.5699,3.5705,3.5731,3.5753,3.5775,3.5755,3.577,3.5789,3.5819,3.583,3.5851,3.5884,3.5909,3.5909,3.5932,3.5952,3.5943,3.5958,3.5956,3.5957,3.5873,3.5861,3.5965,3.5965,3.5965,3.5965,3.5965,3.5965,3.5758,3.5803,3.58,3.5849,3.5854,3.5887,3.5898,3.5911,3.592,3.5958,3.5979,3.5979,3.5985,3.6009,3.603,3.6029,3.6038,3.6057,3.6053,3.5974,3.5963,3.5952,3.5941,3.6059,3.606,3.6134,3.6135,3.6136]}]]